When you browse on this site, cookies collect data to enhance your experience and personalize the content and advertising you see.
Visit our Privacy Policy to learn more. By continuing to use the site, you agree to this use of cookies and data.
  • In Austria
  • List of Countries
  • For 7 days
  • Water Temperature
  • Weather Map
  • News
  • Weather Widgets
  • user-avatar
    Login

    Hourly Weather Kofu

    Today, 23 August, Friday

    Time Temperature Precipitation Wind Pressure Humidity
    00:00 +21°C° 0.1 mm 1 mps 669 mmHg 95%
    01:00 +21°C° 0.4 mm 1 mps 669 mmHg 95%
    02:00 +21°C° 0.4 mm 1 mps 668 mmHg 95%
    03:00 +20°C° 0 mm 2 mps 668 mmHg 96%
    04:00 +20°C° 1.8 mm 2 mps 668 mmHg 97%
    05:00 +21°C° 1.8 mm 1 mps 667 mmHg 97%
    06:00 +22°C° 1.8 mm 1 mps 667 mmHg 97%
    07:00 +22°C° 4.2 mm 1 mps 668 mmHg 97%
    08:00 +22°C° 4.2 mm 1 mps 668 mmHg 97%
    09:00 +23°C° 0 mm 1 mps 669 mmHg 94%
    10:00 +23°C° 2 mm 1 mps 669 mmHg 94%
    11:00 +23°C° 2 mm 1 mps 668 mmHg 93%
    12:00 +23°C° 2 mm 1 mps 668 mmHg 93%
    13:00 +22°C° 2.2 mm 1 mps 668 mmHg 94%
    14:00 +22°C° 2.2 mm 1 mps 668 mmHg 95%
    15:00 +21°C° 2.2 mm 1 mps 668 mmHg 95%
    16:00 +21°C° 0.2 mm 1 mps 668 mmHg 94%
    17:00 +21°C° 0.2 mm 1 mps 668 mmHg 94%
    18:00 +21°C° 0.2 mm 1 mps 668 mmHg 93%
    19:00 +21°C° 0.2 mm 1 mps 668 mmHg 92%
    20:00 +21°C° 0.2 mm 1 mps 668 mmHg 92%
    21:00 +20°C° 0.2 mm 1 mps 668 mmHg 91%
    22:00 +20°C° 0 mm 1 mps 668 mmHg 90%
    23:00 +20°C° 0 mm 1 mps 668 mmHg 89%

    Tomorrow, 24 August, Saturday

    Time Temperature Precipitation Wind Pressure Humidity
    00:00 +20°C° 0 mm 1 mps 668 mmHg 87%
    01:00 +20°C° 0 mm 1 mps 668 mmHg 86%
    02:00 +19°C° 0 mm 1 mps 668 mmHg 84%
    03:00 +19°C° 0 mm 1 mps 668 mmHg 83%
    04:00 +19°C° 0 mm 1 mps 668 mmHg 83%
    05:00 +19°C° 0 mm 1 mps 669 mmHg 84%
    06:00 +19°C° 0 mm 1 mps 669 mmHg 84%
    07:00 +21°C° 0 mm 1 mps 669 mmHg 80%
    08:00 +22°C° 0 mm 1 mps 670 mmHg 75%
    09:00 +23°C° 0 mm 1 mps 670 mmHg 70%
    10:00 +25°C° 0 mm 1 mps 671 mmHg 62%
    11:00 +26°C° 0 mm 1 mps 671 mmHg 54%
    12:00 +27°C° 0 mm 2 mps 671 mmHg 47%
    13:00 +27°C° 0 mm 2 mps 671 mmHg 51%
    14:00 +26°C° 0 mm 2 mps 670 mmHg 55%
    15:00 +25°C° 0 mm 2 mps 669 mmHg 59%
    16:00 +24°C° 0 mm 1 mps 669 mmHg 65%
    17:00 +23°C° 0 mm 1 mps 669 mmHg 71%
    18:00 +22°C° 0 mm 1 mps 669 mmHg 77%
    19:00 +21°C° 0 mm 1 mps 669 mmHg 75%
    20:00 +20°C° 0 mm 1 mps 670 mmHg 73%
    21:00 +20°C° 0 mm 1 mps 670 mmHg 71%
    22:00 +20°C° 0 mm 1 mps 670 mmHg 69%
    23:00 +20°C° 0 mm 1 mps 670 mmHg 67%

    Day after tomorrow, 25 August, Sunday

    Time Temperature Precipitation Wind Pressure Humidity
    00:00 +19°C° 0 mm 1 mps 670 mmHg 66%
    01:00 +19°C° 0 mm 1 mps 670 mmHg 64%
    02:00 +19°C° 0 mm 1 mps 669 mmHg 62%
    03:00 +18°C° 0 mm 1 mps 669 mmHg 61%
    04:00 +18°C° 0 mm 1 mps 669 mmHg 63%
    05:00 +18°C° 0 mm 1 mps 670 mmHg 65%
    06:00 +16°C° 0 mm 1 mps 670 mmHg 67%
    07:00 +20°C° 0 mm 1 mps 671 mmHg 62%
    08:00 +22°C° 0 mm 1 mps 671 mmHg 58%
    09:00 +25°C° 0 mm 1 mps 672 mmHg 53%
    10:00 +25°C° 0 mm 1 mps 672 mmHg 51%
    11:00 +26°C° 0 mm 1 mps 672 mmHg 49%
    12:00 +27°C° 0 mm 1 mps 672 mmHg 47%
    13:00 +26°C° 0 mm 2 mps 671 mmHg 50%
    14:00 +26°C° 0 mm 2 mps 671 mmHg 53%
    15:00 +25°C° 0 mm 2 mps 670 mmHg 57%
    16:00 +24°C° 0 mm 1 mps 670 mmHg 65%
    17:00 +22°C° 0 mm 1 mps 670 mmHg 73%
    18:00 +21°C° 0 mm 1 mps 670 mmHg 81%
    19:00 +20°C° 0 mm 1 mps 670 mmHg 81%
    20:00 +19°C° 0 mm 1 mps 670 mmHg 81%
    21:00 +18°C° 0 mm 1 mps 670 mmHg 81%
    22:00 +18°C° 0 mm 1 mps 670 mmHg 80%
    23:00 +18°C° 0 mm 1 mps 670 mmHg 79%

    26 August, Monday

    Time Temperature Precipitation Wind Pressure Humidity
    00:00 +18°C° 0 mm 1 mps 670 mmHg 77%
    01:00 +18°C° 0 mm 1 mps 670 mmHg 77%
    02:00 +16°C° 0 mm 1 mps 670 mmHg 76%
    03:00 +16°C° 0 mm 1 mps 670 mmHg 75%
    04:00 +16°C° 0 mm 1 mps 670 mmHg 77%
    05:00 +16°C° 0 mm 1 mps 670 mmHg 78%
    06:00 +18°C° 0 mm 1 mps 670 mmHg 80%
    07:00 +20°C° 0 mm 1 mps 671 mmHg 74%
    08:00 +22°C° 0 mm 1 mps 672 mmHg 68%
    09:00 +24°C° 0 mm 1 mps 673 mmHg 62%
    10:00 +25°C° 0.7 mm 1 mps 672 mmHg 65%
    11:00 +25°C° 0.7 mm 1 mps 672 mmHg 68%
    12:00 +25°C° 0.7 mm 1 mps 672 mmHg 71%
    13:00 +24°C° 1.5 mm 1 mps 672 mmHg 74%
    14:00 +24°C° 1.5 mm 1 mps 671 mmHg 77%
    15:00 +23°C° 1.5 mm 1 mps 671 mmHg 79%
    16:00 +22°C° 0.5 mm 1 mps 671 mmHg 83%
    17:00 +21°C° 0.5 mm 1 mps 671 mmHg 86%
    18:00 +20°C° 0.5 mm 1 mps 671 mmHg 89%
    19:00 +19°C° 0 mm 1 mps 671 mmHg 89%
    20:00 +19°C° 0 mm 1 mps 672 mmHg 89%
    21:00 +18°C° 0 mm 1 mps 672 mmHg 90%
    22:00 +18°C° 0 mm 1 mps 672 mmHg 89%
    23:00 +16°C° 0 mm 1 mps 672 mmHg 89%

    27 August, Tuesday

    Time Temperature Precipitation Wind Pressure Humidity
    00:00 +15°C° 0 mm 0 mps 672 mmHg 89%
    01:00 +15°C° 0 mm 0 mps 671 mmHg 89%
    02:00 +15°C° 0 mm 0 mps 671 mmHg 88%
    03:00 +15°C° 0 mm 0 mps 671 mmHg 88%
    04:00 +15°C° 0 mm 0 mps 671 mmHg 89%
    05:00 +16°C° 0 mm 1 mps 672 mmHg 89%
    06:00 +16°C° 0 mm 1 mps 672 mmHg 90%
    07:00 +19°C° 0 mm 1 mps 673 mmHg 85%
    08:00 +21°C° 0 mm 1 mps 673 mmHg 80%
    09:00 +23°C° 0 mm 1 mps 674 mmHg 75%
    10:00 +23°C° 0.3 mm 1 mps 673 mmHg 76%
    11:00 +23°C° 0.3 mm 1 mps 673 mmHg 77%
    12:00 +23°C° 0.3 mm 2 mps 673 mmHg 77%
    13:00 +23°C° 0.6 mm 2 mps 673 mmHg 78%
    14:00 +23°C° 0.6 mm 2 mps 672 mmHg 79%
    15:00 +23°C° 0.6 mm 2 mps 672 mmHg 80%
    16:00 +21°C° 0.4 mm 2 mps 672 mmHg 84%
    17:00 +21°C° 0.4 mm 1 mps 672 mmHg 89%
    18:00 +20°C° 0.4 mm 1 mps 672 mmHg 93%
    19:00 +20°C° 0.3 mm 1 mps 672 mmHg 94%
    20:00 +19°C° 0.3 mm 1 mps 672 mmHg 94%
    21:00 +19°C° 0.3 mm 1 mps 672 mmHg 95%
    22:00 +19°C° 1 mm 1 mps 672 mmHg 96%
    23:00 +19°C° 1 mm 1 mps 671 mmHg 96%

    28 August, Wednesday

    Time Temperature Precipitation Wind Pressure Humidity
    00:00 +19°C° 1 mm 1 mps 671 mmHg 97%
    01:00 +18°C° 2.3 mm 1 mps 670 mmHg 97%
    02:00 +18°C° 2.3 mm 1 mps 670 mmHg 97%
    03:00 +18°C° 2.3 mm 1 mps 670 mmHg 97%
    04:00 +18°C° 4.3 mm 1 mps 669 mmHg 97%
    05:00 +19°C° 4.3 mm 1 mps 669 mmHg 98%
    06:00 +19°C° 4.3 mm 1 mps 669 mmHg 98%
    07:00 +18°C° 2.9 mm 2 mps 669 mmHg 98%
    08:00 +18°C° 2.9 mm 2 mps 669 mmHg 97%
    09:00 +19°C° 2.9 mm 2 mps 669 mmHg 97%
    10:00 +19°C° 1.8 mm 2 mps 669 mmHg 97%
    11:00 +19°C° 1.8 mm 2 mps 669 mmHg 97%
    12:00 +20°C° 1.8 mm 2 mps 668 mmHg 97%
    13:00 +20°C° 0.4 mm 2 mps 668 mmHg 96%
    14:00 +21°C° 0.4 mm 2 mps 668 mmHg 95%
    15:00 +21°C° 0.4 mm 2 mps 668 mmHg 94%
    16:00 +21°C° 0.2 mm 2 mps 668 mmHg 94%
    17:00 +21°C° 0.2 mm 2 mps 668 mmHg 95%
    18:00 +21°C° 0.2 mm 2 mps 667 mmHg 96%
    19:00 +20°C° 0.2 mm 2 mps 667 mmHg 96%
    20:00 +20°C° 0.2 mm 2 mps 667 mmHg 96%
    21:00 +20°C° 0.2 mm 2 mps 667 mmHg 97%
    22:00 +20°C° 0.3 mm 2 mps 667 mmHg 97%
    23:00 +20°C° 0.3 mm 2 mps 667 mmHg 97%
    Show more